Regional Weather Roundup
Issued by NWS

Home | Current Version | Previous Version | Graphics & Text | Print | Product List | Glossary On
Versions: 1 2 3 4 5 6 7 8 9 10 11 12 13 14 15 16 17 18 19 20 21 22 23 24 25 26 27 28 29 30 31 32 33 34 35 36 37 38 39 40 41 42 43 44 45 46 47 48 49 50
000
ASUS43 KDMX 030106
RWRIA

WEATHER ROUNDUP FOR IOWA
NATIONAL WEATHER SERVICE DES MOINES IA
700 PM CST FRI DEC 02 2016

NOTE: "FAIR" INDICATES FEW OR NO CLOUDS BELOW 12,000 FEET WITH NO
SIGNIFICANT WEATHER AND/OR OBSTRUCTIONS TO VISIBILITY.

* - THESE STATIONS ARE NOT NWS STATIONS...THUS NOT UNDER NWS
QUALITY CONTROL.  THEY ALSO DO NOT REPORT WEATHER SUCH
AS PRECIPITATION OR FOG.

IAZ001>003-012>014-020>022-031>034-043>046-030200-
   NORTHWEST IOWA

CITY           SKY/WX    TMP DP  RH WIND       PRES   REMARKS
CARROLL *      CLOUDY    34  34 100 CALM      30.32R
CHEROKEE *     CLOUDY    33  31  92 CALM      30.31S
DENISON *      CLOUDY    36  32  87 CALM      30.31R
LE MARS *      CLOUDY    34  30  86 NW3       30.33S
ORANGE CITY *  CLOUDY    32  30  93 CALM      30.31R
SHELDON *      CLOUDY    32  30  93 W6        30.29R WCI  26
SIOUX CITY     CLOUDY    36  31  82 CALM      30.33S
SPENCER        CLOUDY    32  27  81 W12       30.31R WCI  23
STORM LAKE *   CLOUDY    32  28  86 CALM      30.30S
$$

IAZ055>058-069>071-079>083-090>094-030200-
   SOUTHWEST IOWA

CITY           SKY/WX    TMP DP  RH WIND       PRES   REMARKS
ATLANTIC *     CLOUDY    36  32  87 W5        30.33R WCI  32
AUDUBON *      CLOUDY    36  32  87 CALM      30.33R
CLARINDA *       N/A     32  30  93 CALM      30.36R
COUNCIL BLFS * CLOUDY    34  30  86 CALM      30.33R
CRESTON *      CLEAR     32  27  80 NW5       30.34R WCI  27
HARLAN  *      CLOUDY    36  32  87 NW5       30.36R WCI  32
LAMONI         CLEAR     33  27  78 N7        30.32R WCI  27
RED OAK *      CLOUDY    30  27  86 CALM      30.35R
SHENANDOAH *   PTCLDY    32  28  86 NE5       30.35R WCI  27
$$

IAZ047>049-059>061-072>074-084-030200-
   CENTRAL IOWA

CITY           SKY/WX    TMP DP  RH WIND       PRES   REMARKS
AMES           CLOUDY    35  31  85 N7        30.33R WCI  29
ANKENY *       CLOUDY    37  36  93 N6        30.34R WCI  33
BOONE *        CLOUDY    34  30  86 NW3       30.31S
CHARITON *       N/A     36  30  80 NW5       30.31S WCI  32
DES MOINES     CLOUDY    38  33  82 N5        30.33R WCI  34
GRINNELL*      CLOUDY    35  30  82 N3        30.32R
KNOXVILLE *    CLOUDY    37  30  75 NE6       30.31R WCI  33
MARSHALLTOWN   CLOUDY    33  29  85 CALM      30.32R
NEWTON *       CLOUDY    36  32  87 NW3       30.31R
PELLA *        PTCLDY    37  32  83 CALM      30.34R
PERRY *        CLOUDY    36  35  96 CALM      30.33R
$$

IAZ004>006-015-016-023>025-035-036-030200-
   NORTH CENTRAL IOWA

CITY           SKY/WX    TMP DP  RH WIND       PRES   REMARKS
ALGONA *       CLOUDY    32  25  74 CALM      30.31R
CLARION *      CLOUDY    32  27  80 NW12      30.32R WCI  23
ESTHERVILLE    CLOUDY    30  25  81 CALM      30.29R
FORT DODGE *   CLOUDY    34  23  64 CALM      30.33R
MASON CITY     CLOUDY    30  24  78 NW12      30.32R WCI  20
FOREST CITY *  CLOUDY    30  27  86 NW6       30.31R WCI  24
WEBSTER CITY * CLOUDY    34  28  80 N7        30.30R WCI  28
IOWA FALLS *   CLOUDY    33  27  77 NW9       30.32R WCI  26
$$

IAZ007>011-017>019-026>030-037>042-050>054-066-030200-
   NORTHEAST IOWA

CITY           SKY/WX    TMP DP  RH WIND       PRES   REMARKS
CEDAR RAPIDS   CLOUDY    33  27  78 N7        30.31R WCI  27
CHARLES CITY * CLOUDY    30  25  80 NW8       30.31R WCI  23
CLINTON *      CLOUDY    34  27  75 NW6       30.31S WCI  29
DECORAH *      CLOUDY    30  23  74 NW8       30.28R WCI  23
DUBUQUE        CLOUDY    31  24  75 NW13      30.29R WCI  21
MONTICELLO *   CLOUDY    34  25  69 NW10      30.30S WCI  26
OELWEIN *      CLOUDY    30  25  80 NW8       30.31R WCI  23
WATERLOO       CLOUDY    32  24  72 NW5       30.32R WCI  27
$$

IAZ064-065-067-068-078-030200-
   EAST CENTRAL IOWA

CITY           SKY/WX    TMP DP  RH WIND       PRES   REMARKS
DAVENPORT      CLOUDY    34  26  72 NW10      30.32R WCI  26
IOWA CITY      CLOUDY    36  26  67 NW6       30.34R WCI  31
MUSCATINE *    CLOUDY    37  28  70 N5        30.34R WCI  34
QUAD CITIES    CLOUDY    37  25  61 NW8       30.31S WCI  31
$$

IAZ062-063-075>077-085>089-095>099-030200-
   SOUTHEAST IOWA

CITY           SKY/WX    TMP DP  RH WIND       PRES   REMARKS
BURLINGTON     CLOUDY    38  31  76 N6        30.32R WCI  33
FAIRFIELD *    CLOUDY    37  30  75 N5        30.32R WCI  34
FORT MADISON * CLOUDY    39  32  75 N3        30.33R
KEOKUK *       CLOUDY    41  34  75 NW5       30.32R
OSKALOOSA *    CLOUDY    37  31  79 N5        30.32R WCI  33
CENTERVILLE *  CLOUDY    36  30  80 CALM      30.33R
OTTUMWA        CLOUDY    38  31  76 CALM      30.32R
WASHINGTON *   CLOUDY    36  30  80 CALM      30.34R
$$

ABBREVIATIONS USED IN REMARKS
   TC - TEMPERATURES IN CELSIUS
  WCI - WIND CHILL INDEX
   HX - HEAT INDEX
  VSB - VISIBILITY
$$





USA.gov is the U.S. government's official web portal to all federal, state and local government web resources and services.